Location: Kitt Peak
(31.9639°N, 111.5992°W)
Time: 01:59:31
(UTC-07:00)

XW-2B - Visible Passes

Search period start: 16 September 2024 00:00
Search period end: 26 September 2024 00:00
Orbit: 373 x 375 km, 97.5° (Epoch: 15 September)

Date Brightness Start Highest point End Pass type
(mag) Time Alt. Az. Time Alt. Az. Time Alt. Az.
16 Sep ? 19:31:27 10° S 19:34:17 46° W 19:37:08 10° NNW visible
17 Sep ? 20:05:41 10° SW 20:07:12 13° W 20:08:45 10° WNW visible
18 Sep ? 19:05:43 10° SSE 19:08:34 51° ENE 19:11:26 10° N visible
19 Sep ? 19:38:06 10° SSW 19:40:50 36° W 19:43:34 10° NNW visible
20 Sep ? 20:12:00 10° WSW 20:12:56 11° W 20:13:54 10° WNW visible
21 Sep ? 19:10:37 10° SSE 19:13:29 62° ENE 19:16:24 10° N visible
22 Sep ? 19:42:19 10° SSW 19:44:57 31° W 19:47:37 10° NNW visible
23 Sep ? 20:16:01 10° W 20:16:16 10° W 20:16:29 10° W visible
24 Sep ? 19:13:09 10° SSE 19:16:01 67° ENE 19:18:54 10° N visible
25 Sep ? 19:44:03 10° SSW 19:46:40 30° W 19:49:16 10° NW visible
